Location: Stony Creek
(40.9500°S, 175.8500°E)
Time: 10:07:35
(UTC+00:00)

Cosmos 1346 Rocket - Pass Details

Date: 15 May 2026
Orbit: 472 x 483 km, 81.2° (Epoch: 10 June)

Event Time Altitude Azimuth Distance (km) Brightness Sun altitude
Exits shadow 16:48:49 29° 111° (ESE) 931 4.5 -28.0°
Maximum altitude 16:49:00 29° 105° (ESE) 927 4.5 -28.0°
Drops below altitude 10° 16:52:13 10° 44° (NE) 1,664 5.8 -27.4°
Sets 16:54:29 0° 32° (NNE) 2,531 6.7 -26.9°
